Location: Ripley
(48.3812°N, 115.4473°W)
Time: 11:06:57
(UTC+00:00)

O/OREOS (USA 219) - Pass Details

Date: 29 June 2022
Orbit: 621 x 646 km, 72.0° (Epoch: 22 May)

Event Time Altitude Azimuth Distance (km) Brightness Sun altitude
Rises 08:07:05 0° 335° (NNW) 2,963 ? -18.2°
Reaches altitude 10° 08:09:23 10° 338° (NNW) 2,052 ? -18.2°
Maximum altitude 08:13:59 67° 62° (ENE) 704 ? -18.1°
Enters shadow 08:16:42 24° 139° (SE) 1,336 ? -18.1°
